Location: Unspecified
(0.0000°N, 0.0000°E)
Time: 04:34:02
(UTC+00:00)

Safir 2 - Pass Details

Date: 17 May 2026
Orbit: 804 x 808 km, 99.0° (Epoch: 11 June)

Event Time Altitude Azimuth Distance (km) Brightness Sun altitude
Rises 03:26:22 0° 45° (NE) 3,304 12.2 -35.1°
Reaches altitude 10° 03:29:34 10° 66° (ENE) 2,376 11.3 -34.3°
Maximum altitude 03:32:44 16° 103° (ESE) 1,975 10.6 -33.6°
Drops below altitude 10° 03:35:54 10° 141° (SE) 2,382 10.7 -32.9°
Enters shadow 03:36:58 - 149° (SSE) 2,653 10.9 -32.6°
